| time (UTC) | temp C | wind direction | speed KPH | gust KPH | rain 1hr cm | rain 24hr cm | rain mn cm | humidity % | barometer mb |
| 20260507085840 | 8 | 89 | 3.2 | 3.2 | 0.00 | 0.05 | 0.05 | 91 | 1007.4 |
| 20260507085336 | 8 | 22 | 0.0 | 1.6 | 0.00 | 0.05 | 0.05 | 90 | 1007.5 |
| 20260507084834 | 8 | 37 | 0.0 | 3.2 | 0.00 | 0.05 | 0.05 | 90 | 1007.6 |
| 20260507084330 | 8 | 231 | 1.6 | 3.2 | 0.00 | 0.05 | 0.05 | 89 | 1007.7 |
| 20260507083828 | 8 | 58 | 0.0 | 3.2 | 0.00 | 0.05 | 0.05 | 89 | 1007.3 |
| 20260507083324 | 8 | 87 | 0.0 | 0.0 | 0.00 | 0.05 | 0.05 | 88 | 1007.6 |
| 20260507082820 | 8 | 48 | 0.0 | 3.2 | 0.00 | 0.05 | 0.05 | 88 | 1007.2 |
| 20260507082316 | 8 | 55 | 0.0 | 3.2 | 0.05 | 0.05 | 0.05 | 88 | 1007.5 |
| 20260507081814 | 9 | 16 | 1.6 | 3.2 | 0.05 | 0.05 | 0.05 | 89 | 1007.5 |
| 20260507081309 | 9 | 55 | 0.0 | 3.2 | 0.05 | 0.05 | 0.05 | 87 | 1007.3 |
| 20260507080806 | 9 | 40 | 0.0 | 1.6 | 0.05 | 0.05 | 0.05 | 87 | 1007.3 |
| 20260507080302 | 10 | 69 | 3.2 | 3.2 | 0.00 | 0.03 | 0.03 | 86 | 1007.7 |
| 20260507075757 | 10 | 39 | 1.6 | 3.2 | 0.00 | 0.03 | 0.03 | 85 | 1007.5 |
| 20260507075254 | 10 | 5 | 1.6 | 3.2 | 0.00 | 0.03 | 0.03 | 85 | 1007.8 |
| 20260507074750 | 10 | 232 | 4.8 | 6.4 | 0.00 | 0.03 | 0.03 | 84 | 1007.6 |
| 20260507074249 | 10 | 60 | 0.0 | 3.2 | 0.00 | 0.03 | 0.03 | 86 | 1007.6 |
| 20260507073745 | 10 | 78 | 0.0 | 4.8 | 0.00 | 0.03 | 0.03 | 84 | 1007.0 |
| 20260507073241 | 10 | 57 | 0.0 | 3.2 | 0.00 | 0.03 | 0.03 | 85 | 1007.2 |
| 20260507072739 | 10 | 21 | 1.6 | 3.2 | 0.00 | 0.03 | 0.03 | 84 | 1007.2 |
| 20260507072237 | 10 | 48 | 0.0 | 4.8 | 0.00 | 0.03 | 0.03 | 85 | 1006.9 |
| 20260507071734 | 10 | 11 | 3.2 | 3.2 | 0.00 | 0.03 | 0.03 | 84 | 1007.0 |
| 20260507071230 | 10 | 57 | 3.2 | 4.8 | 0.00 | 0.03 | 0.03 | 84 | 1007.3 |
| 20260507070727 | 10 | 55 | 0.0 | 4.8 | 0.00 | 0.03 | 0.03 | 84 | 1007.2 |
| 20260507070224 | 10 | 17 | 0.0 | 4.8 | 0.00 | 0.03 | 0.03 | 86 | 1007.1 |
| 20260507065721 | 10 | 18 | 3.2 | 3.2 | 0.00 | 0.03 | 0.03 | 86 | 1006.8 |
| 20260507065218 | 10 | 13 | 1.6 | 4.8 | 0.00 | 0.03 | 0.03 | 86 | 1006.9 |
| 20260507064715 | 10 | 89 | 0.0 | 4.8 | 0.00 | 0.03 | 0.03 | 88 | 1006.9 |
| 20260507064214 | 10 | 5 | 3.2 | 3.2 | 0.00 | 0.03 | 0.03 | 88 | 1006.9 |
| 20260507063711 | 10 | 46 | 3.2 | 3.2 | 0.00 | 0.03 | 0.03 | 89 | 1006.9 |
| 20260507063207 | 10 | 357 | 1.6 | 3.2 | 0.00 | 0.03 | 0.03 | 88 | 1006.4 |
| 20260507062704 | 10 | 226 | 3.2 | 3.2 | 0.00 | 0.03 | 0.03 | 87 | 1006.7 |
| 20260507062202 | 10 | 0 | 1.6 | 3.2 | 0.00 | 0.03 | 0.03 | 88 | 1006.4 |
| 20260507061700 | 10 | 111 | 0.0 | 1.6 | 0.00 | 0.03 | 0.03 | 88 | 1006.7 |
| 20260507061157 | 10 | 4 | 1.6 | 3.2 | 0.00 | 0.03 | 0.03 | 89 | 1006.7 |
| 20260507060655 | 10 | 359 | 3.2 | 4.8 | 0.00 | 0.03 | 0.03 | 89 | 1006.8 |
| 20260507060151 | 10 | 93 | 1.6 | 3.2 | 0.00 | 0.03 | 0.03 | 89 | 1006.9 |
| 20260507055647 | 10 | 240 | 0.0 | 4.8 | 0.00 | 0.03 | 0.03 | 90 | 1006.8 |
| 20260507055143 | 11 | 0 | 3.2 | 3.2 | 0.00 | 0.03 | 0.03 | 91 | 1007.1 |
| 20260507054639 | 11 | 279 | 1.6 | 3.2 | 0.00 | 0.03 | 0.03 | 92 | 1007.1 |
| 20260507054136 | 11 | 354 | 0.0 | 3.2 | 0.00 | 0.03 | 0.03 | 92 | 1007.1 |
| 20260507053634 | 11 | 349 | 0.0 | 3.2 | 0.00 | 0.03 | 0.03 | 93 | 1007.2 |
| 20260507053132 | 11 | 23 | 1.6 | 4.8 | 0.00 | 0.03 | 0.03 | 92 | 1006.9 |
| 20260507052630 | 11 | 32 | 3.2 | 3.2 | 0.00 | 0.03 | 0.03 | 92 | 1007.2 |
| 20260507052126 | 11 | 58 | 0.0 | 3.2 | 0.00 | 0.03 | 0.03 | 92 | 1007.4 |
| 20260507051624 | 11 | 226 | 0.0 | 3.2 | 0.00 | 0.03 | 0.03 | 92 | 1007.3 |
| 20260507051121 | 11 | 89 | 0.0 | 3.2 | 0.00 | 0.03 | 0.03 | 92 | 1007.1 |
| 20260507050618 | 11 | 177 | 0.0 | 3.2 | 0.00 | 0.03 | 0.03 | 92 | 1007.0 |
| 20260507050114 | 11 | 4 | 3.2 | 3.2 | 0.00 | 0.03 | 0.03 | 92 | 1006.9 |
| 20260507045611 | 11 | 321 | 0.0 | 3.2 | 0.00 | 0.03 | 0.03 | 93 | 1006.9 |
| 20260507045108 | 11 | 82 | 0.0 | 1.6 | 0.00 | 0.03 | 0.03 | 93 | 1006.9 |
| 20260507044604 | 11 | 37 | 0.0 | 3.2 | 0.00 | 0.03 | 0.03 | 93 | 1006.7 |
| 20260507044102 | 11 | 38 | 3.2 | 3.2 | 0.00 | 0.03 | 0.03 | 94 | 1006.7 |
| 20260507043557 | 11 | 238 | 0.0 | 3.2 | 0.00 | 0.03 | 0.03 | 93 | 1006.9 |
| 20260507043055 | 11 | 357 | 0.0 | 3.2 | 0.05 | 0.03 | 0.03 | 93 | 1007.0 |
| 20260507042550 | 11 | 14 | 1.6 | 4.8 | 0.05 | 0.03 | 0.03 | 92 | 1007.1 |
| 20260507042046 | 12 | 5 | 3.2 | 3.2 | 0.05 | 0.03 | 0.03 | 92 | 1007.3 |
| 20260507041543 | 12 | 4 | 0.0 | 3.2 | 0.13 | 0.03 | 0.03 | 91 | 1007.4 |
| 20260507041040 | 12 | 55 | 1.6 | 3.2 | 0.00 | 0.00 | 0.00 | 91 | 1007.2 |
| 20260507040536 | 12 | 320 | 0.0 | 3.2 | 0.00 | 0.00 | 0.00 | 90 | 1006.9 |
| 20260507040032 | 12 | 330 | 3.2 | 4.8 | 0.00 | 0.81 | 0.81 | 90 | 1007.0 |
| 20260507035529 | 13 | 353 | 1.6 | 6.4 | 0.00 | 0.81 | 0.81 | 91 | 1006.6 |
| 20260507035025 | 13 | 336 | 3.2 | 6.4 | 0.00 | 0.81 | 0.81 | 92 | 1006.8 |
| 20260507034522 | 13 | 331 | 1.6 | 3.2 | 0.00 | 0.81 | 0.81 | 92 | 1006.3 |
| 20260507034020 | 13 | 13 | 1.6 | 3.2 | 0.00 | 0.81 | 0.81 | 92 | 1006.1 |
| 20260507033518 | 13 | 340 | 3.2 | 4.8 | 0.00 | 0.81 | 0.81 | 92 | 1006.1 |
| 20260507033015 | 14 | 61 | 1.6 | 4.8 | 0.00 | 0.81 | 0.81 | 93 | 1006.0 |
| 20260507032512 | 15 | 18 | 1.6 | 6.4 | 0.00 | 0.81 | 0.81 | 94 | 1006.1 |
| 20260507032008 | 15 | 348 | 3.2 | 3.2 | 0.13 | 0.81 | 0.81 | 96 | 1005.7 |
| 20260507031504 | 15 | 83 | 0.0 | 3.2 | 0.13 | 0.81 | 0.81 | 95 | 1005.9 |
| 20260507031002 | 15 | 353 | 3.2 | 3.2 | 0.00 | 0.79 | 0.79 | 95 | 1005.8 |
| 20260507030458 | 15 | 129 | 0.0 | 4.8 | 0.00 | 0.79 | 0.79 | 95 | 1005.8 |
| 20260507025955 | 15 | 243 | 0.0 | 1.6 | 0.00 | 0.79 | 0.79 | 95 | 1005.3 |
| 20260507025453 | 15 | 135 | 3.2 | 4.8 | 0.00 | 0.79 | 0.79 | 94 | 1005.6 |
| 20260507024950 | 15 | 203 | 0.0 | 3.2 | 0.00 | 0.79 | 0.79 | 94 | 1005.7 |
| 20260507024448 | 15 | 323 | 4.8 | 4.8 | 0.00 | 0.79 | 0.79 | 94 | 1005.7 |
| 20260507023943 | 15 | 211 | 0.0 | 3.2 | 0.00 | 0.79 | 0.79 | 94 | 1005.7 |
| 20260507023440 | 15 | 93 | 0.0 | 3.2 | 0.00 | 0.79 | 0.79 | 94 | 1005.7 |
| 20260507022938 | 15 | 226 | 8.0 | 9.7 | 0.00 | 0.79 | 0.79 | 94 | 1005.2 |
| 20260507022435 | 15 | 116 | 0.0 | 3.2 | 0.00 | 0.79 | 0.79 | 94 | 1005.6 |
| 20260507021930 | 15 | 218 | 3.2 | 4.8 | 0.00 | 0.79 | 0.79 | 94 | 1005.3 |
| 20260507021425 | 15 | 157 | 3.2 | 6.4 | 0.00 | 0.79 | 0.79 | 94 | 1005.5 |
| 20260507020924 | 15 | 224 | 1.6 | 4.8 | 0.00 | 0.79 | 0.79 | 94 | 1005.2 |
| 20260507020420 | 15 | 136 | 0.0 | 4.8 | 0.00 | 0.79 | 0.79 | 94 | 1005.3 |
| 20260507015917 | 15 | 301 | 0.0 | 3.2 | 0.00 | 0.79 | 0.79 | 94 | 1005.7 |
| 20260507015415 | 15 | 186 | 3.2 | 3.2 | 0.00 | 0.79 | 0.79 | 94 | 1005.7 |
| 20260507014912 | 15 | 197 | 0.0 | 4.8 | 0.00 | 0.79 | 0.79 | 94 | 1005.5 |
| 20260507014408 | 15 | 169 | 0.0 | 3.2 | 0.00 | 0.79 | 0.79 | 94 | 1005.8 |
| 20260507013904 | 15 | 223 | 3.2 | 4.8 | 0.00 | 0.79 | 0.79 | 94 | 1005.5 |
| 20260507013402 | 15 | 211 | 3.2 | 6.4 | 0.00 | 0.79 | 0.79 | 94 | 1005.8 |
| 20260507012859 | 15 | 180 | 4.8 | 6.4 | 0.00 | 0.79 | 0.79 | 94 | 1005.8 |
| 20260507012355 | 15 | 215 | 4.8 | 4.8 | 0.00 | 0.79 | 0.79 | 94 | 1005.8 |
| 20260507011853 | 15 | 198 | 3.2 | 3.2 | 0.00 | 0.79 | 0.79 | 94 | 1005.6 |
| 20260507011350 | 15 | 139 | 0.0 | 4.8 | 0.00 | 0.79 | 0.79 | 94 | 1005.8 |
| 20260507010849 | 15 | 218 | 3.2 | 8.0 | 0.00 | 0.79 | 0.79 | 94 | 1005.7 |
| 20260507010345 | 15 | 54 | 0.0 | 6.4 | 0.00 | 0.79 | 0.79 | 94 | 1005.7 |
| 20260507005842 | 15 | 243 | 1.6 | 8.0 | 0.00 | 0.79 | 0.79 | 94 | 1005.8 |
| 20260507005339 | 15 | 203 | 0.0 | 6.4 | 0.00 | 0.79 | 0.79 | 94 | 1005.9 |
| 20260507004836 | 15 | 176 | 3.2 | 6.4 | 0.00 | 0.79 | 0.79 | 94 | 1005.6 |
| 20260507004333 | 15 | 70 | 0.0 | 6.4 | 0.00 | 0.79 | 0.79 | 94 | 1005.7 |
| 20260507003830 | 15 | 127 | 3.2 | 6.4 | 0.00 | 0.79 | 0.79 | 94 | 1005.8 |
| 20260507003325 | 15 | 203 | 3.2 | 6.4 | 0.00 | 0.79 | 0.79 | 94 | 1005.6 |
| 20260507002820 | 15 | 190 | 3.2 | 4.8 | 0.00 | 0.79 | 0.79 | 94 | 1005.6 |
| 20260507002317 | 15 | 150 | 3.2 | 6.4 | 0.00 | 0.79 | 0.79 | 95 | 1005.6 |
| 20260507001815 | 15 | 223 | 6.4 | 8.0 | 0.00 | 0.79 | 0.79 | 95 | 1005.6 |
| 20260507001312 | 15 | 180 | 3.2 | 8.0 | 0.00 | 0.79 | 0.79 | 95 | 1005.6 |
| 20260507000808 | 15 | 161 | 0.0 | 4.8 | 0.00 | 0.79 | 0.79 | 95 | 1005.4 |
| 20260507000306 | 15 | 207 | 1.6 | 6.4 | 0.00 | 0.79 | 0.79 | 95 | 1005.7 |
| 20260506235800 | 15 | 191 | 4.8 | 6.4 | 0.05 | 0.79 | 0.79 | 95 | 1005.4 |
| 20260506235256 | 15 | 166 | 3.2 | 6.4 | 0.05 | 0.79 | 0.79 | 95 | 1005.5 |
| 20260506234753 | 15 | 184 | 4.8 | 6.4 | 0.00 | 0.76 | 0.76 | 95 | 1005.3 |
| 20260506234250 | 15 | 136 | 3.2 | 3.2 | 0.05 | 0.76 | 0.76 | 95 | 1005.3 |
| 20260506233748 | 15 | 188 | 3.2 | 4.8 | 0.13 | 0.76 | 0.76 | 95 | 1005.4 |
| 20260506233244 | 15 | 215 | 3.2 | 9.7 | 0.30 | 0.76 | 0.76 | 95 | 1005.6 |
| 20260506232741 | 15 | 198 | 3.2 | 6.4 | 0.36 | 0.74 | 0.74 | 95 | 1005.4 |
| 20260506232235 | 15 | 209 | 1.6 | 8.0 | 0.18 | 0.71 | 0.71 | 94 | 1005.2 |
| 20260506231733 | 15 | 247 | 3.2 | 3.2 | 0.05 | 0.69 | 0.69 | 94 | 1005.6 |
| 20260506231231 | 15 | 262 | 4.8 | 6.4 | 0.18 | 0.66 | 0.66 | 94 | 1005.7 |
| 20260506230728 | 15 | 200 | 4.8 | 4.8 | 0.18 | 0.66 | 0.66 | 94 | 1005.7 |
| 20260506230225 | 15 | 198 | 3.2 | 8.0 | 0.18 | 0.64 | 0.64 | 94 | 1005.9 |
| 20260506225721 | 15 | 167 | 1.6 | 3.2 | 0.23 | 0.61 | 0.61 | 94 | 1005.7 |
| 20260506225218 | 15 | 192 | 3.2 | 6.4 | 0.23 | 0.61 | 0.61 | 94 | 1005.5 |
| 20260506224714 | 15 | 199 | 1.6 | 6.4 | 0.23 | 0.58 | 0.58 | 94 | 1005.7 |
| 20260506224212 | 15 | 210 | 3.2 | 6.4 | 0.36 | 0.56 | 0.56 | 94 | 1005.9 |
| 20260506223708 | 15 | 180 | 0.0 | 6.4 | 0.23 | 0.53 | 0.53 | 94 | 1005.8 |
| 20260506223204 | 15 | 136 | 0.0 | 9.7 | 0.13 | 0.51 | 0.51 | 94 | 1005.9 |
| 20260506222701 | 15 | 192 | 3.2 | 6.4 | 0.13 | 0.48 | 0.48 | 94 | 1005.6 |
| 20260506222156 | 15 | 180 | 3.2 | 8.0 | 0.13 | 0.48 | 0.48 | 93 | 1005.6 |
| 20260506221655 | 15 | 177 | 3.2 | 6.4 | 0.05 | 0.46 | 0.46 | 93 | 1006.0 |
| 20260506221153 | 15 | 195 | 4.8 | 6.4 | 0.00 | 0.46 | 0.46 | 92 | 1006.0 |
| 20260506220649 | 15 | 202 | 3.2 | 11.3 | 0.00 | 0.46 | 0.46 | 92 | 1006.1 |
| 20260506220144 | 15 | 273 | 3.2 | 9.7 | 0.00 | 0.46 | 0.46 | 93 | 1006.3 |
| 20260506215641 | 15 | 224 | 0.0 | 6.4 | 0.00 | 0.46 | 0.46 | 93 | 1005.9 |
| 20260506215136 | 15 | 31 | 3.2 | 4.8 | 0.00 | 0.46 | 0.46 | 93 | 1006.2 |
| 20260506214634 | 15 | 139 | 3.2 | 8.0 | 0.05 | 0.46 | 0.46 | 92 | 1006.0 |
| 20260506214131 | 15 | 196 | 1.6 | 9.7 | 0.00 | 0.46 | 0.46 | 92 | 1006.3 |
| 20260506213629 | 15 | 165 | 3.2 | 8.0 | 0.00 | 0.46 | 0.46 | 93 | 1006.3 |
| 20260506213126 | 15 | 83 | 0.0 | 3.2 | 0.05 | 0.46 | 0.46 | 93 | 1006.4 |
| 20260506212624 | 15 | 156 | 3.2 | 4.8 | 0.13 | 0.46 | 0.46 | 93 | 1006.6 |
| 20260506212118 | 16 | 131 | 3.2 | 4.8 | 0.13 | 0.43 | 0.43 | 92 | 1006.4 |
| 20260506211614 | 16 | 203 | 1.6 | 9.7 | 0.13 | 0.43 | 0.43 | 91 | 1006.7 |
| 20260506211111 | 16 | 162 | 1.6 | 6.4 | 0.23 | 0.43 | 0.43 | 91 | 1007.0 |
| 20260506210608 | 16 | 216 | 4.8 | 6.4 | 0.23 | 0.41 | 0.41 | 91 | 1006.8 |
| 20260506210104 | 16 | 201 | 8.0 | 8.0 | 0.23 | 0.38 | 0.38 | 92 | 1006.7 |
| 20260506205601 | 16 | 193 | 3.2 | 3.2 | 0.18 | 0.36 | 0.36 | 91 | 1006.9 |
| 20260506205056 | 16 | 130 | 0.0 | 6.4 | 0.18 | 0.33 | 0.33 | 91 | 1006.8 |
| 20260506204554 | 16 | 209 | 3.2 | 4.8 | 0.18 | 0.33 | 0.33 | 91 | 1007.0 |
| 20260506204051 | 16 | 25 | 0.0 | 4.8 | 0.18 | 0.30 | 0.30 | 90 | 1006.9 |
| 20260506203550 | 16 | 216 | 3.2 | 4.8 | 0.23 | 0.28 | 0.28 | 90 | 1007.0 |
| 20260506203046 | 16 | 166 | 3.2 | 4.8 | 0.30 | 0.28 | 0.28 | 89 | 1006.9 |
| 20260506202544 | 16 | 184 | 3.2 | 6.4 | 0.23 | 0.23 | 0.23 | 89 | 1006.7 |
| 20260506202040 | 16 | 247 | 1.6 | 6.4 | 0.18 | 0.23 | 0.23 | 88 | 1006.9 |
| 20260506201538 | 16 | 206 | 1.6 | 3.2 | 0.30 | 0.20 | 0.20 | 88 | 1006.7 |
| 20260506201034 | 17 | 178 | 0.0 | 6.4 | 0.23 | 0.18 | 0.18 | 86 | 1006.8 |
| 20260506200530 | 17 | 125 | 4.8 | 6.4 | 0.05 | 0.15 | 0.15 | 85 | 1006.7 |
| 20260506200027 | 17 | 203 | 6.4 | 6.4 | 0.13 | 0.15 | 0.15 | 85 | 1006.8 |
| 20260506195524 | 17 | 130 | 0.0 | 3.2 | 0.13 | 0.15 | 0.15 | 84 | 1006.6 |
| 20260506195020 | 17 | 182 | 0.0 | 6.4 | 0.13 | 0.13 | 0.13 | 83 | 1006.7 |
| 20260506194518 | 17 | 174 | 3.2 | 4.8 | 0.13 | 0.13 | 0.13 | 81 | 1006.9 |
| 20260506194014 | 17 | 171 | 3.2 | 8.0 | 0.13 | 0.10 | 0.10 | 81 | 1006.7 |
| 20260506193511 | 18 | 191 | 3.2 | 4.8 | 0.13 | 0.10 | 0.10 | 80 | 1006.9 |
| 20260506193008 | 18 | 206 | 0.0 | 6.4 | 0.13 | 0.10 | 0.10 | 76 | 1006.6 |
| 20260506192505 | 18 | 173 | 1.6 | 3.2 | 0.18 | 0.08 | 0.08 | 74 | 1006.9 |
| 20260506192001 | 19 | 152 | 3.2 | 6.4 | 0.05 | 0.05 | 0.05 | 71 | 1007.0 |
| 20260506191458 | 19 | 225 | 1.6 | 6.4 | 0.05 | 0.05 | 0.05 | 69 | 1006.9 |
| 20260506190954 | 20 | 220 | 1.6 | 8.0 | 0.05 | 0.05 | 0.05 | 66 | 1006.9 |
| 20260506190452 | 20 | 238 | 6.4 | 9.7 | 0.05 | 0.05 | 0.05 | 66 | 1007.1 |
| 20260506185948 | 20 | 186 | 1.6 | 4.8 | 0.00 | 0.03 | 0.03 | 65 | 1006.9 |
| 20260506185445 | 20 | 245 | 6.4 | 9.7 | 0.05 | 0.03 | 0.03 | 62 | 1006.8 |
| 20260506184942 | 20 | 230 | 3.2 | 4.8 | 0.00 | 0.03 | 0.03 | 62 | 1006.7 |
| 20260506184439 | 20 | 201 | 1.6 | 4.8 | 0.00 | 0.03 | 0.03 | 62 | 1006.9 |
| 20260506183936 | 20 | 209 | 3.2 | 6.4 | 0.00 | 0.03 | 0.03 | 60 | 1006.9 |
| 20260506183431 | 20 | 218 | 0.0 | 3.2 | 0.00 | 0.03 | 0.03 | 62 | 1006.8 |
| 20260506182929 | 20 | 56 | 1.6 | 4.8 | 0.05 | 0.03 | 0.03 | 61 | 1006.9 |
| 20260506182426 | 20 | 207 | 4.8 | 4.8 | 0.05 | 0.03 | 0.03 | 61 | 1006.9 |
| 20260506181923 | 20 | 224 | 0.0 | 3.2 | 0.05 | 0.00 | 0.00 | 62 | 1006.9 |
| 20260506181422 | 21 | 145 | 1.6 | 9.7 | 0.05 | 0.00 | 0.00 | 58 | 1006.9 |
| 20260506180918 | 22 | 194 | 6.4 | 14.5 | 0.00 | 0.00 | 0.00 | 52 | 1006.7 |
| 20260506180414 | 22 | 170 | 3.2 | 11.3 | 0.00 | 0.00 | 0.00 | 51 | 1006.9 |
| 20260506175911 | 22 | 171 | 3.2 | 14.5 | 0.00 | 0.00 | 0.00 | 51 | 1006.9 |
| 20260506175408 | 22 | 206 | 6.4 | 6.4 | 0.00 | 0.00 | 0.00 | 51 | 1006.9 |
| 20260506174904 | 22 | 176 | 3.2 | 9.7 | 0.00 | 0.00 | 0.00 | 51 | 1006.8 |
| 20260506174402 | 22 | 183 | 6.4 | 22.5 | 0.00 | 0.00 | 0.00 | 50 | 1007.0 |
| 20260506173900 | 22 | 210 | 4.8 | 8.0 | 0.00 | 0.00 | 0.00 | 50 | 1006.9 |
| 20260506173356 | 23 | 202 | 6.4 | 20.9 | 0.00 | 0.00 | 0.00 | 48 | 1007.1 |
| 20260506172853 | 23 | 192 | 6.4 | 17.7 | 0.00 | 0.00 | 0.00 | 47 | 1006.9 |
| 20260506172350 | 23 | 217 | 4.8 | 14.5 | 0.00 | 0.00 | 0.00 | 48 | 1006.9 |
| 20260506171847 | 23 | 232 | 11.3 | 17.7 | 0.00 | 0.00 | 0.00 | 48 | 1007.0 |
| 20260506171344 | 23 | 153 | 4.8 | 8.0 | 0.00 | 0.00 | 0.00 | 48 | 1007.1 |
| 20260506170842 | 23 | 243 | 3.2 | 9.7 | 0.00 | 0.00 | 0.00 | 49 | 1007.3 |
| 20260506170338 | 22 | 268 | 3.2 | 14.5 | 0.00 | 0.00 | 0.00 | 50 | 1007.2 |
| 20260506165837 | 22 | 274 | 1.6 | 9.7 | 0.00 | 0.00 | 0.00 | 51 | 1007.4 |
| 20260506165335 | 22 | 222 | 6.4 | 14.5 | 0.00 | 0.00 | 0.00 | 50 | 1007.6 |
| 20260506164831 | 22 | 181 | 6.4 | 9.7 | 0.00 | 0.00 | 0.00 | 51 | 1007.5 |
| 20260506164328 | 22 | 155 | 4.8 | 11.3 | 0.00 | 0.00 | 0.00 | 50 | 1007.8 |
| 20260506163825 | 22 | 290 | 6.4 | 9.7 | 0.00 | 0.00 | 0.00 | 51 | 1007.7 |
| 20260506163320 | 22 | 148 | 0.0 | 6.4 | 0.00 | 0.00 | 0.00 | 52 | 1007.6 |
| 20260506162815 | 22 | 209 | 1.6 | 6.4 | 0.00 | 0.00 | 0.00 | 53 | 1007.8 |
| 20260506162314 | 22 | 238 | 1.6 | 3.2 | 0.00 | 0.00 | 0.00 | 54 | 1007.8 |
| 20260506161811 | 22 | 208 | 0.0 | 6.4 | 0.00 | 0.00 | 0.00 | 53 | 1008.0 |
| 20260506161308 | 22 | 183 | 4.8 | 6.4 | 0.00 | 0.00 | 0.00 | 53 | 1008.0 |
| 20260506160806 | 22 | 181 | 3.2 | 6.4 | 0.00 | 0.00 | 0.00 | 55 | 1008.2 |
| 20260506160302 | 22 | 243 | 3.2 | 8.0 | 0.00 | 0.00 | 0.00 | 55 | 1008.4 |
| 20260506155801 | 22 | 184 | 4.8 | 9.7 | 0.00 | 0.00 | 0.00 | 54 | 1008.3 |
| 20260506155257 | 22 | 202 | 9.7 | 9.7 | 0.00 | 0.00 | 0.00 | 55 | 1008.6 |
| 20260506153404 | 21 | 238 | 8.0 | 9.7 | 0.00 | 0.00 | 0.00 | 56 | 1008.8 |
| 20260506152901 | 21 | 202 | 8.0 | 14.5 | 0.00 | 0.00 | 0.00 | 56 | 1009.1 |
| 20260506152358 | 21 | 245 | 3.2 | 6.4 | 0.00 | 0.00 | 0.00 | 58 | 1008.9 |
| 20260506151856 | 21 | 267 | 4.8 | 6.4 | 0.00 | 0.00 | 0.00 | 57 | 1009.2 |
| 20260506151353 | 21 | 167 | 3.2 | 8.0 | 0.00 | 0.00 | 0.00 | 58 | 1008.8 |
| 20260506150851 | 21 | 151 | 1.6 | 8.0 | 0.00 | 0.00 | 0.00 | 58 | 1009.1 |
| 20260506150347 | 21 | 213 | 0.0 | 6.4 | 0.00 | 0.00 | 0.00 | 58 | 1009.2 |
| 20260506145844 | 21 | 183 | 4.8 | 4.8 | 0.00 | 0.00 | 0.00 | 59 | 1009.2 |
| 20260506145340 | 21 | 218 | 0.0 | 6.4 | 0.00 | 0.00 | 0.00 | 60 | 1009.2 |
| 20260506144838 | 21 | 179 | 3.2 | 9.7 | 0.00 | 0.00 | 0.00 | 60 | 1009.2 |
| 20260506144334 | 21 | 245 | 1.6 | 11.3 | 0.00 | 0.00 | 0.00 | 59 | 1008.9 |
| 20260506143833 | 20 | 173 | 1.6 | 8.0 | 0.00 | 0.00 | 0.00 | 60 | 1009.1 |
| 20260506143329 | 20 | 209 | 9.7 | 11.3 | 0.00 | 0.00 | 0.00 | 60 | 1009.0 |
| 20260506142828 | 20 | 204 | 4.8 | 9.7 | 0.00 | 0.00 | 0.00 | 61 | 1008.9 |
| 20260506142325 | 21 | 161 | 1.6 | 9.7 | 0.00 | 0.00 | 0.00 | 60 | 1008.7 |
| 20260506141823 | 20 | 169 | 4.8 | 9.7 | 0.00 | 0.00 | 0.00 | 60 | 1008.7 |
| 20260506141321 | 20 | 136 | 0.0 | 9.7 | 0.00 | 0.00 | 0.00 | 62 | 1008.9 |
| 20260506140819 | 20 | 253 | 3.2 | 4.8 | 0.00 | 0.00 | 0.00 | 62 | 1009.0 |
| 20260506140315 | 20 | 128 | 0.0 | 6.4 | 0.00 | 0.00 | 0.00 | 63 | 1008.9 |
| 20260506135813 | 20 | 199 | 0.0 | 6.4 | 0.00 | 0.00 | 0.00 | 64 | 1009.0 |
| 20260506135309 | 19 | 201 | 4.8 | 9.7 | 0.00 | 0.00 | 0.00 | 65 | 1009.2 |
| 20260506134805 | 19 | 198 | 4.8 | 16.1 | 0.00 | 0.00 | 0.00 | 65 | 1009.3 |
| 20260506134302 | 19 | 203 | 3.2 | 8.0 | 0.00 | 0.00 | 0.00 | 65 | 1009.3 |
| 20260506133759 | 19 | 224 | 0.0 | 8.0 | 0.00 | 0.00 | 0.00 | 66 | 1009.6 |
| 20260506133256 | 18 | 194 | 4.8 | 6.4 | 0.00 | 0.00 | 0.00 | 66 | 1009.5 |
| 20260506132752 | 19 | 233 | 3.2 | 6.4 | 0.00 | 0.00 | 0.00 | 66 | 1009.7 |
| 20260506132250 | 18 | 149 | 3.2 | 6.4 | 0.00 | 0.00 | 0.00 | 66 | 1009.5 |
| 20260506131748 | 18 | 254 | 3.2 | 9.7 | 0.00 | 0.00 | 0.00 | 67 | 1009.5 |
| 20260506131243 | 18 | 203 | 4.8 | 6.4 | 0.00 | 0.00 | 0.00 | 67 | 1009.3 |
| 20260506130740 | 18 | 116 | 3.2 | 6.4 | 0.00 | 0.00 | 0.00 | 67 | 1009.5 |
| 20260506130237 | 18 | 203 | 8.0 | 11.3 | 0.00 | 0.00 | 0.00 | 67 | 1009.5 |
| 20260506125735 | 18 | 265 | 1.6 | 9.7 | 0.00 | 0.00 | 0.00 | 67 | 1009.7 |
| 20260506125233 | 18 | 185 | 4.8 | 4.8 | 0.00 | 0.00 | 0.00 | 67 | 1009.5 |
| 20260506124731 | 18 | 164 | 3.2 | 8.0 | 0.00 | 0.00 | 0.00 | 67 | 1009.4 |
| 20260506124228 | 18 | 172 | 3.2 | 9.7 | 0.00 | 0.00 | 0.00 | 67 | 1009.4 |
| 20260506123726 | 18 | 238 | 1.6 | 6.4 | 0.00 | 0.00 | 0.00 | 67 | 1009.6 |
| 20260506123224 | 18 | 178 | 3.2 | 6.4 | 0.00 | 0.00 | 0.00 | 67 | 1009.7 |
| 20260506122721 | 18 | 181 | 3.2 | 11.3 | 0.00 | 0.00 | 0.00 | 66 | 1009.6 |
| 20260506122218 | 19 | 188 | 8.0 | 9.7 | 0.00 | 0.00 | 0.00 | 65 | 1009.8 |
| 20260506121716 | 18 | 109 | 3.2 | 9.7 | 0.00 | 0.00 | 0.00 | 68 | 1009.7 |
| 20260506121212 | 17 | 173 | 1.6 | 9.7 | 0.00 | 0.00 | 0.00 | 69 | 1009.6 |
| 20260506120710 | 17 | 198 | 4.8 | 8.0 | 0.00 | 0.00 | 0.00 | 70 | 1009.8 |
| 20260506120208 | 17 | 195 | 3.2 | 8.0 | 0.00 | 0.00 | 0.00 | 70 | 1009.8 |
| 20260506115706 | 17 | 149 | 1.6 | 9.7 | 0.00 | 0.00 | 0.00 | 70 | 1009.9 |
| 20260506115203 | 17 | 229 | 4.8 | 12.9 | 0.00 | 0.00 | 0.00 | 70 | 1009.9 |
| 20260506114701 | 17 | 225 | 3.2 | 9.7 | 0.00 | 0.00 | 0.00 | 70 | 1009.8 |
| 20260506114158 | 17 | 230 | 1.6 | 9.7 | 0.00 | 0.00 | 0.00 | 70 | 1009.8 |
| 20260506113657 | 17 | 132 | 3.2 | 11.3 | 0.00 | 0.00 | 0.00 | 70 | 1009.9 |
| 20260506113154 | 17 | 172 | 4.8 | 8.0 | 0.00 | 0.00 | 0.00 | 70 | 1009.7 |
| 20260506112649 | 17 | 232 | 3.2 | 3.2 | 0.00 | 0.00 | 0.00 | 71 | 1010.1 |
| 20260506112148 | 17 | 182 | 3.2 | 22.5 | 0.00 | 0.00 | 0.00 | 70 | 1010.0 |
| 20260506111645 | 17 | 201 | 4.8 | 9.7 | 0.00 | 0.00 | 0.00 | 71 | 1009.8 |
| 20260506111142 | 17 | 202 | 4.8 | 8.0 | 0.00 | 0.00 | 0.00 | 71 | 1009.7 |
| 20260506110639 | 17 | 271 | 3.2 | 8.0 | 0.00 | 0.00 | 0.00 | 72 | 1009.9 |
| 20260506110137 | 16 | 202 | 4.8 | 6.4 | 0.00 | 0.00 | 0.00 | 72 | 1010.1 |
| 20260506105633 | 16 | 201 | 1.6 | 6.4 | 0.00 | 0.00 | 0.00 | 72 | 1009.9 |
| 20260506105130 | 16 | 238 | 4.8 | 8.0 | 0.00 | 0.00 | 0.00 | 72 | 1010.1 |
| 20260506104629 | 16 | 200 | 4.8 | 6.4 | 0.00 | 0.00 | 0.00 | 72 | 1010.0 |
| 20260506104126 | 16 | 161 | 0.0 | 4.8 | 0.00 | 0.00 | 0.00 | 72 | 1009.8 |
| 20260506103623 | 16 | 150 | 3.2 | 6.4 | 0.00 | 0.00 | 0.00 | 72 | 1009.9 |
| 20260506103120 | 16 | 189 | 4.8 | 6.4 | 0.00 | 0.00 | 0.00 | 72 | 1009.9 |
| 20260506102618 | 16 | 188 | 3.2 | 6.4 | 0.00 | 0.00 | 0.00 | 72 | 1009.8 |
| 20260506102115 | 16 | 199 | 4.8 | 9.7 | 0.00 | 0.00 | 0.00 | 72 | 1010.0 |
| 20260506101612 | 16 | 195 | 6.4 | 6.4 | 0.00 | 0.00 | 0.00 | 72 | 1010.1 |
| 20260506101108 | 16 | 96 | 3.2 | 6.4 | 0.00 | 0.00 | 0.00 | 72 | 1010.0 |
| 20260506100607 | 16 | 128 | 3.2 | 4.8 | 0.00 | 0.00 | 0.00 | 72 | 1009.7 |
| 20260506100105 | 16 | 194 | 3.2 | 6.4 | 0.00 | 0.00 | 0.00 | 71 | 1010.1 |
| 20260506095603 | 16 | 133 | 3.2 | 6.4 | 0.00 | 0.00 | 0.00 | 71 | 1009.8 |
| 20260506095059 | 16 | 205 | 4.8 | 9.7 | 0.00 | 0.00 | 0.00 | 72 | 1009.8 |
| 20260506094557 | 16 | 207 | 4.8 | 9.7 | 0.00 | 0.00 | 0.00 | 71 | 1009.6 |
| 20260506094055 | 16 | 197 | 3.2 | 8.0 | 0.00 | 0.00 | 0.00 | 71 | 1009.9 |
| 20260506093553 | 16 | 202 | 0.0 | 8.0 | 0.00 | 0.00 | 0.00 | 71 | 1010.1 |
| 20260506093050 | 16 | 195 | 4.8 | 6.4 | 0.00 | 0.00 | 0.00 | 71 | 1010.0 |
| 20260506092548 | 16 | 134 | 3.2 | 12.9 | 0.00 | 0.00 | 0.00 | 71 | 1009.9 |
| 20260506092045 | 16 | 219 | 3.2 | 6.4 | 0.00 | 0.00 | 0.00 | 71 | 1009.8 |
| 20260506091543 | 16 | 181 | 1.6 | 3.2 | 0.00 | 0.00 | 0.00 | 71 | 1009.9 |
| 20260506091039 | 16 | 167 | 3.2 | 8.0 | 0.00 | 0.00 | 0.00 | 70 | 1009.9 |
| 20260506090537 | 16 | 263 | 0.0 | 6.4 | 0.00 | 0.00 | 0.00 | 70 | 1009.8 |
| 20260506090033 | 16 | 213 | 3.2 | 4.8 | 0.00 | 0.00 | 0.00 | 70 | 1009.7 |